| time (UTC) | temp F | wind direction | speed MPH | gust MPH | rain 1hr in | rain 24hr in | rain mn in | humidity % | barometer mb |
| 20260508002148 | 65 | 0 | 0.0 | 0.0 | 0.00 | 0.00 | 0.00 | 23 | 1035.0 |
| 20260508001328 | 65 | 0 | 0.0 | 0.0 | 0.00 | 0.00 | 0.00 | 23 | 1035.0 |
| 20260508000508 | 65 | 0 | 0.0 | 0.0 | 0.00 | 0.00 | 0.00 | 23 | 1035.0 |
| 20260507235647 | 65 | 0 | 0.0 | 0.0 | 0.00 | 0.00 | 0.00 | 23 | 1035.0 |
| 20260507234827 | 65 | 0 | 0.0 | 0.0 | 0.00 | 0.00 | 0.00 | 23 | 1035.0 |
| 20260507234007 | 66 | 0 | 0.0 | 0.0 | 0.00 | 0.00 | 0.00 | 23 | 1035.0 |
| 20260507233147 | 66 | 0 | 0.0 | 0.0 | 0.00 | 0.00 | 0.00 | 23 | 1035.0 |
| 20260507232327 | 66 | 0 | 0.0 | 0.0 | 0.00 | 0.00 | 0.00 | 23 | 1035.0 |
| 20260507231507 | 66 | 0 | 0.0 | 0.0 | 0.00 | 0.00 | 0.00 | 22 | 1035.0 |
| 20260507230646 | 66 | 0 | 0.0 | 0.0 | 0.00 | 0.00 | 0.00 | 22 | 1035.0 |
| 20260507225826 | 67 | 0 | 0.0 | 0.0 | 0.00 | 0.00 | 0.00 | 22 | 1035.0 |
| 20260507225007 | 67 | 0 | 0.0 | 0.0 | 0.00 | 0.00 | 0.00 | 22 | 1035.1 |
| 20260507224146 | 67 | 0 | 0.0 | 0.0 | 0.00 | 0.00 | 0.00 | 20 | 1036.0 |
| 20260507223326 | 67 | 0 | 0.0 | 0.0 | 0.00 | 0.00 | 0.00 | 20 | 1036.0 |
| 20260507222505 | 67 | 0 | 0.0 | 0.0 | 0.00 | 0.00 | 0.00 | 20 | 1036.0 |
| 20260507221645 | 67 | 0 | 0.0 | 0.0 | 0.00 | 0.00 | 0.00 | 20 | 1036.0 |
| 20260507220825 | 67 | 0 | 0.0 | 0.0 | 0.00 | 0.00 | 0.00 | 20 | 1036.0 |
| 20260507220005 | 67 | 0 | 0.0 | 0.0 | 0.00 | 0.00 | 0.00 | 20 | 1036.0 |
| 20260507215145 | 67 | 0 | 0.0 | 0.0 | 0.00 | 0.00 | 0.00 | 20 | 1036.0 |
| 20260507214325 | 67 | 0 | 0.0 | 0.0 | 0.00 | 0.00 | 0.00 | 20 | 1035.0 |
| 20260507213504 | 67 | 0 | 0.0 | 0.0 | 0.00 | 0.00 | 0.00 | 20 | 1035.4 |
| 20260507212644 | 67 | 0 | 0.0 | 0.0 | 0.00 | 0.00 | 0.00 | 20 | 1036.0 |
| 20260507211824 | 67 | 0 | 0.0 | 0.0 | 0.00 | 0.00 | 0.00 | 20 | 1036.0 |
| 20260507211004 | 67 | 0 | 0.0 | 0.0 | 0.00 | 0.00 | 0.00 | 20 | 1036.0 |
| 20260507210144 | 67 | 0 | 0.0 | 0.0 | 0.00 | 0.00 | 0.00 | 17 | 1035.0 |
| 20260507205324 | 68 | 0 | 0.0 | 0.0 | 0.00 | 0.00 | 0.00 | 17 | 1035.0 |
| 20260507204504 | 67 | 0 | 0.0 | 0.0 | 0.00 | 0.00 | 0.00 | 17 | 1035.0 |
| 20260507203643 | 68 | 0 | 0.0 | 0.0 | 0.00 | 0.00 | 0.00 | 17 | 1035.0 |
| 20260507202823 | 68 | 0 | 0.0 | 0.0 | 0.00 | 0.00 | 0.00 | 17 | 1035.0 |
| 20260507202003 | 68 | 0 | 0.0 | 0.0 | 0.00 | 0.00 | 0.00 | 17 | 1035.0 |
| 20260507201143 | 68 | 0 | 0.0 | 0.0 | 0.00 | 0.00 | 0.00 | 17 | 1035.0 |
| 20260507200322 | 68 | 0 | 0.0 | 0.0 | 0.00 | 0.00 | 0.00 | 17 | 1035.0 |
| 20260507195503 | 68 | 0 | 0.0 | 0.0 | 0.00 | 0.00 | 0.00 | 17 | 1035.0 |
| 20260507194642 | 69 | 0 | 0.0 | 0.0 | 0.00 | 0.00 | 0.00 | 17 | 1035.0 |
| 20260507193822 | 69 | 0 | 0.0 | 0.0 | 0.00 | 0.00 | 0.00 | 17 | 1035.0 |
| 20260507193002 | 69 | 0 | 0.0 | 0.0 | 0.00 | 0.00 | 0.00 | 17 | 1035.0 |
| 20260507192142 | 69 | 0 | 0.0 | 0.0 | 0.00 | 0.00 | 0.00 | 17 | 1035.0 |
| 20260507191321 | 69 | 0 | 0.0 | 0.0 | 0.00 | 0.00 | 0.00 | 17 | 1035.0 |
| 20260507190501 | 69 | 0 | 0.0 | 0.0 | 0.00 | 0.00 | 0.00 | 17 | 1035.0 |
| 20260507185641 | 69 | 0 | 0.0 | 0.0 | 0.00 | 0.00 | 0.00 | 17 | 1035.0 |
| 20260507184821 | 69 | 0 | 0.0 | 0.0 | 0.00 | 0.00 | 0.00 | 17 | 1035.0 |
| 20260507184001 | 69 | 0 | 0.0 | 0.0 | 0.00 | 0.00 | 0.00 | 17 | 1035.0 |
| 20260507183141 | 70 | 0 | 0.0 | 0.0 | 0.00 | 0.00 | 0.00 | 17 | 1035.0 |
| 20260507182320 | 70 | 0 | 0.0 | 0.0 | 0.00 | 0.00 | 0.00 | 17 | 1035.0 |
| 20260507181500 | 70 | 0 | 0.0 | 0.0 | 0.00 | 0.00 | 0.00 | 17 | 1035.0 |
| 20260507180640 | 70 | 0 | 0.0 | 0.0 | 0.00 | 0.00 | 0.00 | 17 | 1035.0 |
| 20260507175820 | 70 | 0 | 0.0 | 0.0 | 0.00 | 0.00 | 0.00 | 17 | 1035.0 |
| 20260507175000 | 70 | 0 | 0.0 | 0.0 | 0.00 | 0.00 | 0.00 | 17 | 1035.0 |
| 20260507174139 | 70 | 0 | 0.0 | 0.0 | 0.00 | 0.00 | 0.00 | 17 | 1035.0 |
| 20260507173319 | 70 | 0 | 0.0 | 0.0 | 0.00 | 0.00 | 0.00 | 17 | 1034.0 |
| 20260507172459 | 70 | 0 | 0.0 | 0.0 | 0.00 | 0.00 | 0.00 | 17 | 1034.0 |
| 20260507171639 | 70 | 0 | 0.0 | 0.0 | 0.00 | 0.00 | 0.00 | 17 | 1035.0 |
| 20260507170819 | 71 | 0 | 0.0 | 0.0 | 0.00 | 0.00 | 0.00 | 17 | 1035.0 |
| 20260507165958 | 71 | 0 | 0.0 | 0.0 | 0.00 | 0.00 | 0.00 | 17 | 1035.0 |
| 20260507165138 | 71 | 0 | 0.0 | 0.0 | 0.00 | 0.00 | 0.00 | 17 | 1035.0 |
| 20260507164318 | 71 | 0 | 0.0 | 0.0 | 0.00 | 0.00 | 0.00 | 17 | 1035.0 |
| 20260507163458 | 71 | 0 | 0.0 | 0.0 | 0.00 | 0.00 | 0.00 | 17 | 1035.0 |
| 20260507162638 | 71 | 0 | 0.0 | 0.0 | 0.00 | 0.00 | 0.00 | 17 | 1035.0 |
| 20260507161818 | 71 | 0 | 0.0 | 0.0 | 0.00 | 0.00 | 0.00 | 17 | 1036.0 |
| 20260507160958 | 71 | 0 | 0.0 | 0.0 | 0.00 | 0.00 | 0.00 | 17 | 1036.0 |
| 20260507160137 | 71 | 0 | 0.0 | 0.0 | 0.00 | 0.00 | 0.00 | 17 | 1035.0 |
| 20260507155317 | 71 | 0 | 0.0 | 0.0 | 0.00 | 0.00 | 0.00 | 17 | 1035.0 |
| 20260507154457 | 71 | 0 | 0.0 | 0.0 | 0.00 | 0.00 | 0.00 | 17 | 1036.0 |
| 20260507153637 | 71 | 0 | 0.0 | 0.0 | 0.00 | 0.00 | 0.00 | 17 | 1036.0 |
| 20260507152816 | 71 | 0 | 0.0 | 0.0 | 0.00 | 0.00 | 0.00 | 17 | 1036.0 |
| 20260507151956 | 71 | 0 | 0.0 | 0.0 | 0.00 | 0.00 | 0.00 | 17 | 1035.0 |
| 20260507151136 | 71 | 0 | 0.0 | 0.0 | 0.00 | 0.00 | 0.00 | 17 | 1035.0 |
| 20260507150316 | 71 | 0 | 0.0 | 0.0 | 0.00 | 0.00 | 0.00 | 17 | 1035.0 |
| 20260507145456 | 71 | 0 | 0.0 | 0.0 | 0.00 | 0.00 | 0.00 | 17 | 1035.0 |
| 20260507144636 | 72 | 0 | 0.0 | 0.0 | 0.00 | 0.00 | 0.00 | 16 | 1035.0 |
| 20260507143816 | 72 | 0 | 0.0 | 0.0 | 0.00 | 0.00 | 0.00 | 16 | 1035.0 |
| 20260507142956 | 72 | 0 | 0.0 | 0.0 | 0.00 | 0.00 | 0.00 | 16 | 1036.0 |
| 20260507142136 | 72 | 0 | 0.0 | 0.0 | 0.00 | 0.00 | 0.00 | 16 | 1036.0 |
| 20260507141316 | 73 | 0 | 0.0 | 0.0 | 0.00 | 0.00 | 0.00 | 16 | 1035.0 |
| 20260507140456 | 72 | 0 | 0.0 | 0.0 | 0.00 | 0.00 | 0.00 | 16 | 1035.0 |
| 20260507135636 | 72 | 0 | 0.0 | 0.0 | 0.00 | 0.00 | 0.00 | 16 | 1035.0 |
| 20260507134816 | 72 | 0 | 0.0 | 0.0 | 0.00 | 0.00 | 0.00 | 16 | 1035.0 |
| 20260507133956 | 71 | 0 | 0.0 | 0.0 | 0.00 | 0.00 | 0.00 | 17 | 1035.0 |
| 20260507133136 | 70 | 0 | 0.0 | 0.0 | 0.00 | 0.00 | 0.00 | 17 | 1035.0 |
| 20260507132316 | 70 | 0 | 0.0 | 0.0 | 0.00 | 0.00 | 0.00 | 20 | 1035.0 |
| 20260507131456 | 70 | 0 | 0.0 | 0.0 | 0.00 | 0.00 | 0.00 | 20 | 1036.0 |
| 20260507130636 | 70 | 0 | 0.0 | 0.0 | 0.00 | 0.00 | 0.00 | 19 | 1036.0 |
| 20260507125816 | 70 | 0 | 0.0 | 0.0 | 0.00 | 0.00 | 0.00 | 18 | 1035.0 |
| 20260507124956 | 70 | 0 | 0.0 | 0.0 | 0.00 | 0.00 | 0.00 | 17 | 1036.0 |
| 20260507124136 | 71 | 0 | 0.0 | 0.0 | 0.00 | 0.00 | 0.00 | 17 | 1036.0 |
| 20260507123316 | 71 | 0 | 0.0 | 0.0 | 0.00 | 0.00 | 0.00 | 17 | 1036.0 |
| 20260507122456 | 70 | 0 | 0.0 | 0.0 | 0.00 | 0.00 | 0.00 | 17 | 1036.0 |
| 20260507121636 | 69 | 0 | 0.0 | 0.0 | 0.00 | 0.00 | 0.00 | 17 | 1036.0 |
| 20260507120816 | 69 | 0 | 0.0 | 0.0 | 0.00 | 0.00 | 0.00 | 17 | 1036.0 |
| 20260507115956 | 69 | 0 | 0.0 | 0.0 | 0.00 | 0.00 | 0.00 | 17 | 1037.0 |
| 20260507115136 | 69 | 0 | 0.0 | 0.0 | 0.00 | 0.00 | 0.00 | 20 | 1037.0 |
| 20260507114316 | 69 | 0 | 0.0 | 0.0 | 0.00 | 0.00 | 0.00 | 20 | 1037.0 |
| 20260507113456 | 69 | 0 | 0.0 | 0.0 | 0.00 | 0.00 | 0.00 | 20 | 1037.0 |
| 20260507112637 | 69 | 0 | 0.0 | 0.0 | 0.00 | 0.00 | 0.00 | 20 | 1037.0 |
| 20260507111816 | 69 | 0 | 0.0 | 0.0 | 0.00 | 0.00 | 0.00 | 20 | 1037.0 |
| 20260507110956 | 69 | 0 | 0.0 | 0.0 | 0.00 | 0.00 | 0.00 | 20 | 1037.0 |
| 20260507110136 | 69 | 0 | 0.0 | 0.0 | 0.00 | 0.00 | 0.00 | 20 | 1037.0 |
| 20260507105316 | 69 | 0 | 0.0 | 0.0 | 0.00 | 0.00 | 0.00 | 20 | 1037.0 |
| 20260507104456 | 69 | 0 | 0.0 | 0.0 | 0.00 | 0.00 | 0.00 | 20 | 1037.0 |
| 20260507103635 | 69 | 0 | 0.0 | 0.0 | 0.00 | 0.00 | 0.00 | 20 | 1037.0 |
| 20260507102815 | 69 | 0 | 0.0 | 0.0 | 0.00 | 0.00 | 0.00 | 17 | 1037.0 |
| 20260507101955 | 69 | 0 | 0.0 | 0.0 | 0.00 | 0.00 | 0.00 | 17 | 1036.0 |
| 20260507101135 | 69 | 0 | 0.0 | 0.0 | 0.00 | 0.00 | 0.00 | 17 | 1036.0 |
| 20260507100315 | 69 | 0 | 0.0 | 0.0 | 0.00 | 0.00 | 0.00 | 17 | 1037.0 |
| 20260507095456 | 69 | 0 | 0.0 | 0.0 | 0.00 | 0.00 | 0.00 | 17 | 1037.0 |
| 20260507094635 | 69 | 0 | 0.0 | 0.0 | 0.00 | 0.00 | 0.00 | 17 | 1037.0 |
| 20260507093815 | 69 | 0 | 0.0 | 0.0 | 0.00 | 0.00 | 0.00 | 17 | 1037.0 |
| 20260507092955 | 69 | 0 | 0.0 | 0.0 | 0.00 | 0.00 | 0.00 | 17 | 1036.0 |
| 20260507092135 | 69 | 0 | 0.0 | 0.0 | 0.00 | 0.00 | 0.00 | 17 | 1036.0 |
| 20260507091315 | 69 | 0 | 0.0 | 0.0 | 0.00 | 0.00 | 0.00 | 17 | 1036.0 |
| 20260507090455 | 69 | 0 | 0.0 | 0.0 | 0.00 | 0.00 | 0.00 | 17 | 1036.0 |
| 20260507085635 | 69 | 0 | 0.0 | 0.0 | 0.00 | 0.00 | 0.00 | 17 | 1036.0 |
| 20260507084815 | 69 | 0 | 0.0 | 0.0 | 0.00 | 0.00 | 0.00 | 17 | 1036.0 |
| 20260507083955 | 69 | 0 | 0.0 | 0.0 | 0.00 | 0.00 | 0.00 | 17 | 1036.0 |
| 20260507083135 | 69 | 0 | 0.0 | 0.0 | 0.00 | 0.00 | 0.00 | 17 | 1036.0 |
| 20260507082315 | 68 | 0 | 0.0 | 0.0 | 0.00 | 0.00 | 0.00 | 20 | 1036.0 |
| 20260507081455 | 68 | 0 | 0.0 | 0.0 | 0.00 | 0.00 | 0.00 | 20 | 1036.0 |
| 20260507080635 | 68 | 0 | 0.0 | 0.0 | 0.00 | 0.00 | 0.00 | 20 | 1036.0 |
| 20260507075814 | 68 | 0 | 0.0 | 0.0 | 0.00 | 0.00 | 0.00 | 20 | 1035.0 |
| 20260507074954 | 69 | 0 | 0.0 | 0.0 | 0.00 | 0.00 | 0.00 | 20 | 1034.0 |
| 20260507074134 | 69 | 0 | 0.0 | 0.0 | 0.00 | 0.00 | 0.00 | 20 | 1034.0 |
| 20260507073314 | 69 | 0 | 0.0 | 0.0 | 0.00 | 0.00 | 0.00 | 20 | 1035.0 |
| 20260507072453 | 68 | 0 | 0.0 | 0.0 | 0.00 | 0.00 | 0.00 | 20 | 1035.0 |
| 20260507071633 | 69 | 0 | 0.0 | 0.0 | 0.00 | 0.00 | 0.00 | 20 | 1035.0 |
| 20260507070813 | 69 | 0 | 0.0 | 0.0 | 0.00 | 0.00 | 0.00 | 20 | 1035.0 |
| 20260507065954 | 68 | 0 | 0.0 | 0.0 | 0.00 | 0.00 | 0.00 | 20 | 1035.0 |
| 20260507065133 | 68 | 0 | 0.0 | 0.0 | 0.00 | 0.00 | 0.00 | 20 | 1035.0 |
| 20260507064313 | 67 | 0 | 0.0 | 0.0 | 0.00 | 0.00 | 0.00 | 20 | 1035.0 |
| 20260507063452 | 68 | 0 | 0.0 | 0.0 | 0.00 | 0.00 | 0.00 | 20 | 1035.0 |
| 20260507062632 | 68 | 0 | 0.0 | 0.0 | 0.00 | 0.00 | 0.00 | 20 | 1035.0 |
| 20260507061812 | 68 | 0 | 0.0 | 0.0 | 0.00 | 0.00 | 0.00 | 20 | 1035.0 |
| 20260507060952 | 68 | 0 | 0.0 | 0.0 | 0.00 | 0.00 | 0.00 | 20 | 1035.0 |
| 20260507060132 | 68 | 0 | 0.0 | 0.0 | 0.00 | 0.00 | 0.00 | 20 | 1035.0 |
| 20260507055311 | 69 | 0 | 0.0 | 0.0 | 0.00 | 0.00 | 0.00 | 20 | 1035.0 |
| 20260507054451 | 68 | 0 | 0.0 | 0.0 | 0.00 | 0.00 | 0.00 | 20 | 1035.0 |
| 20260507053631 | 67 | 0 | 0.0 | 0.0 | 0.00 | 0.00 | 0.00 | 22 | 1035.0 |
| 20260507052811 | 67 | 0 | 0.0 | 0.0 | 0.00 | 0.00 | 0.00 | 23 | 1034.0 |
| 20260507051950 | 67 | 0 | 0.0 | 0.0 | 0.00 | 0.00 | 0.00 | 24 | 1034.0 |
| 20260507051130 | 66 | 0 | 0.0 | 0.0 | 0.00 | 0.00 | 0.00 | 25 | 1034.0 |
| 20260507050310 | 65 | 0 | 0.0 | 0.0 | 0.00 | 0.00 | 0.00 | 26 | 1034.0 |
| 20260507045450 | 65 | 0 | 0.0 | 0.0 | 0.00 | 0.00 | 0.00 | 27 | 1034.0 |
| 20260507044630 | 65 | 0 | 0.0 | 0.0 | 0.00 | 0.00 | 0.00 | 28 | 1034.0 |
| 20260507043809 | 64 | 0 | 0.0 | 0.0 | 0.00 | 0.00 | 0.00 | 28 | 1034.0 |
| 20260507042949 | 64 | 0 | 0.0 | 0.0 | 0.00 | 0.00 | 0.00 | 27 | 1034.0 |
| 20260507042129 | 65 | 0 | 0.0 | 0.0 | 0.00 | 0.00 | 0.00 | 25 | 1034.0 |
| 20260507041309 | 65 | 0 | 0.0 | 0.0 | 0.00 | 0.00 | 0.00 | 23 | 1034.0 |
| 20260507040449 | 65 | 0 | 0.0 | 0.0 | 0.00 | 0.00 | 0.00 | 23 | 1034.0 |
| 20260507035629 | 64 | 0 | 0.0 | 0.0 | 0.00 | 0.00 | 0.00 | 21 | 1034.0 |
| 20260507034808 | 64 | 0 | 0.0 | 0.0 | 0.00 | 0.00 | 0.00 | 21 | 1034.0 |
| 20260507033948 | 64 | 0 | 0.0 | 0.0 | 0.00 | 0.00 | 0.00 | 21 | 1034.0 |
| 20260507033128 | 64 | 0 | 0.0 | 0.0 | 0.00 | 0.00 | 0.00 | 21 | 1034.0 |
| 20260507032308 | 64 | 0 | 0.0 | 0.0 | 0.00 | 0.00 | 0.00 | 21 | 1034.0 |
| 20260507031448 | 64 | 0 | 0.0 | 0.0 | 0.00 | 0.00 | 0.00 | 21 | 1034.0 |
| 20260507030627 | 64 | 0 | 0.0 | 0.0 | 0.00 | 0.00 | 0.00 | 21 | 1034.0 |
| 20260507025807 | 64 | 0 | 0.0 | 0.0 | 0.00 | 0.00 | 0.00 | 23 | 1034.0 |
| 20260507024946 | 64 | 0 | 0.0 | 0.0 | 0.00 | 0.00 | 0.00 | 21 | 1034.0 |
| 20260507024126 | 64 | 0 | 0.0 | 0.0 | 0.00 | 0.00 | 0.00 | 23 | 1034.0 |
| 20260507023306 | 64 | 0 | 0.0 | 0.0 | 0.00 | 0.00 | 0.00 | 23 | 1033.0 |
| 20260507022446 | 64 | 0 | 0.0 | 0.0 | 0.00 | 0.00 | 0.00 | 23 | 1033.0 |
| 20260507021625 | 64 | 0 | 0.0 | 0.0 | 0.00 | 0.00 | 0.00 | 23 | 1034.0 |
| 20260507020805 | 64 | 0 | 0.0 | 0.0 | 0.00 | 0.00 | 0.00 | 23 | 1034.0 |
| 20260507015945 | 64 | 0 | 0.0 | 0.0 | 0.00 | 0.00 | 0.00 | 23 | 1034.0 |
| 20260507015125 | 64 | 0 | 0.0 | 0.0 | 0.00 | 0.00 | 0.00 | 23 | 1033.0 |
| 20260507013647 | 64 | 0 | 0.0 | 0.0 | 0.00 | 0.00 | 0.00 | 20 | 1033.0 |
| 20260507012827 | 65 | 0 | 0.0 | 0.0 | 0.00 | 0.00 | 0.00 | 20 | 1033.0 |
| 20260507012007 | 65 | 0 | 0.0 | 0.0 | 0.00 | 0.00 | 0.00 | 20 | 1033.0 |
| 20260507011147 | 65 | 0 | 0.0 | 0.0 | 0.00 | 0.00 | 0.00 | 20 | 1033.0 |
| 20260507010326 | 65 | 0 | 0.0 | 0.0 | 0.00 | 0.00 | 0.00 | 20 | 1033.0 |
| 20260507005506 | 66 | 0 | 0.0 | 0.0 | 0.00 | 0.00 | 0.00 | 20 | 1033.0 |
| 20260507004646 | 66 | 0 | 0.0 | 0.0 | 0.00 | 0.00 | 0.00 | 20 | 1033.0 |
| 20260507003826 | 66 | 0 | 0.0 | 0.0 | 0.00 | 0.00 | 0.00 | 20 | 1033.0 |
| 20260507003006 | 66 | 0 | 0.0 | 0.0 | 0.00 | 0.00 | 0.00 | 20 | 1033.0 |